Regional Weather Roundup
Issued by NWS Newport/Morehead, NC

Current Version | Previous Version | Graphics & Text | Print | Product List | Glossary Off
Versions: 1 2 3 4 5 6 7 8 9 10 11 12 13 14 15 16 17 18 19 20 21 22 23 24 25 26 27 28 29 30 31 32 33 34 35 36 37 38 39 40 41 42 43 44 45 46 47 48 49 50

201
ASUS42 KMHX 062013
RWRMHX
WEATHER ROUNDUP FOR EASTERN NORTH CAROLINA
NATIONAL WEATHER SERVICE NEWPORT/MOREHEAD CITY NC
400 PM EDT FRI MAY 06 2016

NOTE: "FAIR" INDICATES FEW OR NO CLOUDS BELOW 12,000 FEET
WITH NO SIGNIFICANT WEATHER AND/OR OBSTRUCTIONS TO VISIBILITY

NCZ015>017-031-032-045>047-102-103-062100-
NORTH COAST

CITY           SKY/WX    TMP DP  RH WIND       PRES   REMARKS
EDENTON        PTSUNNY   64  52  65 NW3       29.71F
ELIZABETH CITY PTSUNNY   60  50  69 W6        29.70S
KITTY HAWK     MOCLDY    64  53  67 W3        29.69F
MANTEO         MOSUNNY   61  52  74 N9        29.70F

$$

NCZ045>047-081-094-103-104-062100-
CENTRAL COAST

CITY           SKY/WX    TMP DP  RH WIND       PRES   REMARKS
FRISCO         CLOUDY    61  51  70 SW9       29.71F
SWANQUARTER    NOT AVBL

$$

NCZ095-097-098-100-101-062100-
SOUTHERN COAST

CITY           SKY/WX    TMP DP  RH WIND       PRES   REMARKS
BEAUFORT       MOSUNNY   63  49  60 W12       29.73S
CEDAR ISLAND   NOT AVBL
JACKSONVILLE   CLOUDY    63  50  62 NW8       29.74R
PINEY ISLAND   CLOUDY   N/A N/A N/A W9        29.72S
WILMINGTON     MOSUNNY   67  50  54 W13       29.74F


$$

NCZ011>013-027>030-043-044-078>080-089-090>093-098-062100-
COASTAL PLAIN

CITY           SKY/WX    TMP DP  RH WIND       PRES   REMARKS
AHOSKIE        MOSUNNY   60  50  68 NW6       29.71S
CLINTON        PTSUNNY   64  52  65 W6        29.75F
ELIZABETHTOWN  PTSUNNY   67  47  49 NW8       29.75F
GOLDSBORO      MOSUNNY   61  60  96 N3        29.72S
GREENVILLE     MOSUNNY   61  54  77 CALM      29.75F
HAVELOCK       CLOUDY    63  50  62 W14       29.74S
KENANSVILLE    CLOUDY    64  48  56 NW9       29.75S
KINSTON        CLOUDY    61  52  72 CALM      29.74S
NEW BERN       CLOUDY    61  51  70 W7        29.74R
RICHLANDS      PTSUNNY   64  54  69 VRB5      29.74F
ROCKY MOUNT    PTSUNNY   65  50  58 W10       29.72S
WASHINGTON     CLOUDY    60  51  73 NW6       29.72R
WHITEVILLE     NOT AVBL

$$

AMZ130-135-150-152-154-156-158-170-250-252-270-ANZ085-086-088-633-658-670-062100-
MARINE OBSERVATIONS

STATION/POSITION TIME  TEMP    WIND        PRES    WAVE   SWELL
                       AIR SEA DIR/SP/G            HT/PER HT/PER
                 (UTC) (F)     (DEG/KT/KT) (MB)    (FT/S) (FT/S)
CHESAPEAKE LIGHT 2000   55     290/  4/  5 1006.7
64 E VA BEACH    1950   53 53  140/  2/  4 1005.8    6/ 9   7/ 9
DUCK             1900   57 59  100/  8/  9 1005.2
2 E DUCK         1911      60                N/A     5/ 8   2/11
OREGON INLET     1900   59 60  310/  9/ 12 1005.4
13E OREGON INLT  2000      57                N/A     6/ 9   5/ 9
HATTERAS CG      1900   61 65  220/  5/ 10 1005.9
DIAMOND BUOY     1950   61 74  250/ 14/ 17 1006.3    5/ 9   5/ 9
CAPE LOOKOUT     2000   62     250/ 13/ 15 1006.4
BEAUFORT LAB     1900   64 66  270/  4/  8 1006.0
30 SE NEW RVR IN 1925      72                N/A     4/ 7
27 SE WRIGHTSVLE 1908   63 72  300/ 12/ 17 1007.8
5 SE WRIGHTSVLE  NOT AVBL
225 S CAPE HAT   1950   69 73  300/ 12/ 14 1008.1    8/ 9   7/ 9
41 SE CHARLESTON 1950   65 73  260/ 10/ 12 1009.3    2/ 5   2/ 5

$$




USA.gov is the U.S. government's official web portal to all federal, state and local government web resources and services.